Location: Eymir
(36.7333°N, 29.7833°E)
Time: 01:19:28
(UTC+00:00)

VELOX 1 - Pass Details

Date: 26 May 2026
Orbit: 569 x 578 km, 98.3° (Epoch: 10 June)

Event Time Altitude Azimuth Distance (km) Brightness Sun altitude
Rises 21:40:09 0° 7° (N) 2,797 ? -31.9°
Reaches altitude 10° 21:42:20 10° 4° (N) 1,895 ? -31.9°
Enters shadow 21:44:14 26° 354° (N) 1,162 ? -31.9°
